[[{"header":{"parameterUnit":"m.s-1","parameterCategory":2,"la1":30.2992,"la2":30.254,"lo1":-89.0895,"lo2":-89.0443,"dy":0.0025,"dx":0.0025,"nx":19,"ny":19,"refTime":"2026-05-19T09:00:00:Z","depth":"0","parameterNumber":2,"parameterNumberName":"U-component_of_CURRENTS"},"data":[0,0,0,-0.3317,-0.3317,-0.3272,-0.3271,-0.3082,-0.3081,0,0,0,0,0,0,0,0,0,0,0,-0.3308,-0.3307,-0.3317,-0.3317,-0.3272,-0.3271,-0.3083,-0.3081,0,0,0,0,0,0,0,0,0,0,0,-0.3308,-0.3308,-0.3307,-0.3317,-0.3272,-0.3271,-0.3083,-0.3144,0,0,0,0,0,0,0,0,0,0,-0.3202,-0.3211,-0.3308,-0.3307,-0.3317,-0.3272,-0.3271,-0.3148,-0.314,-0.3074,0,-0.3066,0,-0.3087,-0.3067,-0.3067,0,0,0,-0.3292,-0.3218,-0.3224,-0.3307,-0.3317,-0.3272,-0.3285,-0.3144,-0.3135,-0.3062,-0.3064,-0.3059,-0.3084,-0.3066,-0.3065,-0.2762,-0.276,0,0,-0.3295,-0.3277,-0.3231,-0.3218,-0.3301,-0.3287,-0.3284,-0.314,-0.3115,-0.3064,-0.3055,-0.3081,-0.3065,-0.3063,-0.2763,-0.2761,0,0,0,-0.3319,-0.3279,-0.329,-0.3224,-0.3237,-0.3286,-0.3283,-0.312,-0.3129,-0.3054,-0.3079,-0.3064,-0.3061,-0.2765,-0.2762,-0.2759,0,0,0,-0.3319,-0.3296,-0.3291,-0.3277,-0.324,-0.3195,-0.3266,-0.3138,-0.3125,-0.308,-0.3063,-0.3059,-0.2767,-0.2764,-0.2764,-0.28,0,0,0,-0.3311,-0.3295,-0.3293,-0.3277,-0.3274,-0.3199,-0.3198,-0.3136,-0.314,-0.3066,-0.3059,-0.2769,-0.2764,-0.2768,-0.2804,-0.2779,0,0,0,-0.329,-0.3167,-0.3292,-0.3162,-0.3275,-0.3148,-0.32,-0.3086,-0.3009,-0.3062,-0.2767,-0.2763,-0.2769,-0.2807,-0.2782,-0.2402,-0.2359,0,0,-0.31,-0.3144,-0.3065,-0.3176,-0.3063,-0.3153,-0.3007,-0.2946,-0.2922,-0.2806,-0.28,-0.2763,-0.2805,-0.278,-0.215,-0.2115,0,0,0,-0.2982,-0.2953,-0.2925,-0.2917,-0.289,-0.2916,-0.2876,-0.285,-0.2759,-0.2867,-0.2674,-0.2699,-0.2685,-0.2457,-0.2428,-0.234,-0.2743,-0.2743,-0.2743,-0.2715,-0.2764,-0.2677,-0.274,-0.2698,-0.2715,-0.2699,-0.2663,-0.2634,-0.258,-0.263,-0.2521,-0.2268,-0.2245,-0.2157,-0.2531,-0.2531,-0.2531,-0.2531,-0.2513,-0.2481,-0.2594,-0.2536,-0.2614,-0.2544,-0.2553,-0.2564,-0.2516,-0.2513,-0.2498,-0.238,-0.2213,-0.213,-0.253,-0.253,-0.253,-0.253,-0.253,-0.2389,-0.238,-0.2412,-0.2436,-0.2465,-0.251,-0.248,-0.2535,-0.2513,-0.2517,-0.2243,-0.2238,-0.223,-0.2491,-0.2491,-0.2491,-0.2491,-0.2491,-0.2491,-0.2236,-0.2273,-0.2281,-0.2343,-0.2392,-0.2421,-0.2455,-0.2386,-0.2255,-0.2206,-0.2202,-0.2108,-0.2509,-0.2585,-0.2491,-0.2491,-0.2491,-0.2491,-0.2491,-0.2017,-0.2095,-0.2106,-0.216,-0.2179,-0.1972,-0.2145,-0.1802,-0.184,-0.1662,-0.1677,-0.2015,-0.1991,-0.2006,-0.2066,-0.1845,-0.1845,-0.1845,-0.1844,-0.1878,-0.1916,-0.1894,-0.1871,-0.1783,-0.1698,-0.1164,-0.0999,-0.1045,-0.1093,-0.1372,-0.1263,-0.1293,-0.123,-0.1263,-0.1308,-0.09,-0.0899,-0.0899,-0.1735,-0.1792,-0.1664,-0.1614,-0.1502,-0.1159,-0.0492,-0.0163,-0.0473,-0.0874,-0.1337,-0.1376,-0.1245,-0.13,-0.1225,-0.1278,-0.1363,0,0]},{"header":{"parameterUnit":"m.s-1","parameterCategory":2,"la1":30.2992,"la2":30.254,"lo1":-89.0895,"lo2":-89.0443,"dy":0.0025,"dx":0.0025,"nx":19,"ny":19,"refTime":"2026-05-19T09:00:00:Z","depth":"0","parameterNumber":3,"parameterNumberName":"V-component_of_CURRENTS"},"data":[0,0,0,-0.0314,-0.0311,-0.0159,-0.0158,0.0063,0.0064,0,0,0,0,0,0,0,0,0,0,0,-0.0376,-0.0376,-0.0314,-0.0311,-0.0159,-0.0158,0.0062,0.0064,0,0,0,0,0,0,0,0,0,0,0,-0.0377,-0.0376,-0.0376,-0.031,-0.0159,-0.0158,0.0062,-0.0055,0,0,0,0,0,0,0,0,0,0,-0.0204,-0.0282,-0.0376,-0.0376,-0.031,-0.016,-0.0158,-0.0061,-0.0048,-0.0005,0,0.0,0,0.0035,0.0078,0.0079,0,0,0,-0.0292,-0.0294,-0.0244,-0.0376,-0.0309,-0.016,-0.0222,-0.0053,-0.0039,0.0013,0.0004,0.0012,0.0039,0.0079,0.008,0.0125,0.0124,0,0,-0.0301,-0.0348,-0.0255,-0.0236,-0.0292,-0.0227,-0.0218,-0.0045,-0.0044,0.0004,0.0018,0.0042,0.0081,0.0082,0.0126,0.0125,0,0,0,-0.0337,-0.0355,-0.0309,-0.0245,-0.0221,-0.0223,-0.0212,-0.0051,-0.0035,0.002,0.0045,0.0082,0.0084,0.0127,0.0126,0.0001,0,0,0,-0.0341,-0.0376,-0.0314,-0.034,-0.0225,-0.014,-0.0224,-0.0047,-0.0026,0.0044,0.0082,0.0086,0.0128,0.0126,0.0007,-0.0027,0,0,0,-0.0379,-0.038,-0.0368,-0.0343,-0.0283,-0.0142,-0.0115,-0.0041,-0.0011,0.0079,0.0087,0.0129,0.0127,0.0012,-0.0019,0.0104,0,0,0,-0.0423,-0.0443,-0.037,-0.0388,-0.0285,-0.0245,-0.0115,-0.007,-0.0011,0.0083,0.0128,0.0126,0.0013,-0.0014,0.0106,0.047,0.049,0,0,-0.0477,-0.0451,-0.0463,-0.0393,-0.0395,-0.0263,-0.0257,-0.0121,-0.0031,0.008,0.0082,0.0005,-0.0019,0.0105,0.0326,0.0352,0,0,0,-0.0498,-0.051,-0.05,-0.0477,-0.0417,-0.0361,-0.0234,-0.0177,-0.0091,-0.0007,-0.0011,-0.0021,0.0062,0.0284,0.0302,0.0414,0.0114,0.0115,0.0115,-0.0624,-0.0585,-0.0615,-0.0564,-0.0534,-0.0426,-0.0373,-0.0271,-0.0179,-0.0183,-0.0136,-0.0148,0.0078,0.0098,0.0203,-0.016,-0.0161,-0.0161,-0.0162,-0.0726,-0.074,-0.0699,-0.071,-0.064,-0.0614,-0.0482,-0.0414,-0.0282,-0.0265,-0.0175,0.0121,0.0113,0.0217,-0.017,-0.0168,-0.0167,-0.0167,-0.0166,-0.0805,-0.0808,-0.0808,-0.0819,-0.0786,-0.0698,-0.049,-0.048,-0.0375,-0.0332,0.0076,0.0083,0.0204,-0.0235,-0.0234,-0.0234,-0.0234,-0.0233,-0.0233,-0.088,-0.088,-0.0897,-0.0907,-0.0826,-0.0699,-0.0497,-0.0298,-0.0087,0.0,0.0007,0.0226,-0.0166,-0.0131,-0.0228,-0.0229,-0.023,-0.023,-0.0231,-0.0951,-0.0954,-0.0953,-0.0884,-0.0623,-0.024,-0.0104,0.0399,0.0484,0.0674,0.0596,0.0246,0.0367,0.0357,0.0408,0.0456,0.0456,0.0456,0.0456,-0.0999,-0.1008,-0.0856,-0.0607,-0.0271,0.0055,0.0848,0.118,0.1202,0.1147,0.0927,0.0981,0.0949,0.1102,0.1075,0.114,0.1371,0.1372,0.1373,-0.104,-0.0986,-0.0768,-0.0475,0.0006,0.0531,0.1292,0.1786,0.165,0.1401,0.0995,0.0956,0.1011,0.0952,0.1172,0.1125,0.1223,0,0]}],[{"header":{"parameterUnit":"m.s-1","parameterCategory":2,"la1":30.2992,"la2":30.254,"lo1":-89.0895,"lo2":-89.0443,"dy":0.0025,"dx":0.0025,"nx":19,"ny":19,"refTime":"2026-05-19T09:00:00:Z","depth":"2","parameterNumber":2,"parameterNumberName":"U-component_of_CURRENTS"},"data":[0,0,0,-0.2393,-0.2394,-0.2436,-0.2437,-0.2369,-0.2368,0,0,0,0,0,0,0,0,0,0,0,-0.2376,-0.2377,-0.2393,-0.2395,-0.2436,-0.2437,-0.2369,-0.2368,0,0,0,0,0,0,0,0,0,0,0,-0.2376,-0.2376,-0.2377,-0.2395,-0.2436,-0.2437,-0.2369,-0.2366,0,0,0,0,0,0,0,0,0,0,-0.2339,-0.2341,-0.2376,-0.2377,-0.2395,-0.2436,-0.2437,-0.2367,-0.2366,-0.2318,0,-0.2333,0,-0.2351,-0.2361,-0.2361,0,0,0,-0.2386,-0.2342,-0.2358,-0.2377,-0.2396,-0.2436,-0.2415,-0.2367,-0.2366,-0.2316,-0.2332,-0.2331,-0.2349,-0.2361,-0.236,-0.2258,-0.2257,0,0,-0.2384,-0.2374,-0.2359,-0.2358,-0.2415,-0.2414,-0.2417,-0.2368,-0.2364,-0.2332,-0.233,-0.2348,-0.236,-0.2359,-0.2258,-0.2258,0,0,0,-0.2383,-0.2372,-0.2391,-0.2359,-0.2378,-0.2415,-0.2418,-0.2366,-0.2374,-0.2329,-0.2347,-0.236,-0.2358,-0.2259,-0.2258,-0.227,0,0,0,-0.2381,-0.2373,-0.2391,-0.2384,-0.238,-0.2389,-0.2418,-0.2378,-0.2374,-0.2348,-0.2359,-0.2357,-0.2259,-0.2258,-0.2271,-0.229,0,0,0,-0.2373,-0.2371,-0.2381,-0.2383,-0.2407,-0.2391,-0.2396,-0.2378,-0.2384,-0.2361,-0.2357,-0.2259,-0.2258,-0.2272,-0.229,-0.2244,0,0,0,-0.2355,-0.2353,-0.2381,-0.2384,-0.2407,-0.2406,-0.2397,-0.2394,-0.2378,-0.2359,-0.2259,-0.2258,-0.2272,-0.229,-0.2245,-0.2035,-0.2014,0,0,-0.2337,-0.2351,-0.2353,-0.2378,-0.2378,-0.24,-0.2376,-0.2359,-0.2341,-0.2266,-0.2265,-0.2271,-0.229,-0.2244,-0.1982,-0.1962,0,0,0,-0.2337,-0.2329,-0.2337,-0.2347,-0.2366,-0.2368,-0.2356,-0.234,-0.23,-0.233,-0.2248,-0.226,-0.2231,-0.2105,-0.2089,-0.2254,-0.2254,-0.2254,-0.2254,-0.2258,-0.2287,-0.2283,-0.2309,-0.2317,-0.2331,-0.2329,-0.2298,-0.2275,-0.2259,-0.2253,-0.2206,-0.2071,-0.2057,-0.2225,-0.2225,-0.2225,-0.2225,-0.2225,-0.2202,-0.2185,-0.2241,-0.2247,-0.2277,-0.2265,-0.2273,-0.2275,-0.223,-0.2232,-0.2201,-0.2103,-0.2041,-0.2226,-0.2226,-0.2225,-0.2225,-0.2225,-0.2225,-0.2113,-0.2111,-0.2145,-0.2174,-0.2199,-0.2236,-0.2225,-0.2256,-0.2238,-0.2232,-0.2045,-0.2042,-0.2216,-0.2192,-0.2192,-0.2192,-0.2192,-0.2192,-0.2192,-0.1999,-0.2037,-0.2026,-0.2095,-0.2101,-0.2141,-0.2196,-0.2164,-0.2078,-0.2039,-0.2036,-0.2194,-0.2195,-0.2212,-0.219,-0.219,-0.219,-0.2191,-0.2191,-0.184,-0.1891,-0.1855,-0.1861,-0.1898,-0.1856,-0.1984,-0.1892,-0.1876,-0.1783,-0.1905,-0.1913,-0.1883,-0.1892,-0.1899,-0.1798,-0.1798,-0.1798,-0.1798,-0.1719,-0.1753,-0.1657,-0.1616,-0.1613,-0.1684,-0.1534,-0.1523,-0.1565,-0.1543,-0.1555,-0.1519,-0.1538,-0.149,-0.1508,-0.1508,-0.1306,-0.1305,-0.1305,-0.1597,-0.1593,-0.1458,-0.1458,-0.1447,-0.144,-0.1268,-0.1142,-0.1124,-0.1295,-0.1567,-0.1746,-0.1721,-0.1741,-0.1692,-0.1712,-0.1723,0,0]},{"header":{"parameterUnit":"m.s-1","parameterCategory":2,"la1":30.2992,"la2":30.254,"lo1":-89.0895,"lo2":-89.0443,"dy":0.0025,"dx":0.0025,"nx":19,"ny":19,"refTime":"2026-05-19T09:00:00:Z","depth":"2","parameterNumber":3,"parameterNumberName":"V-component_of_CURRENTS"},"data":[0,0,0,-0.0479,-0.0478,-0.0375,-0.0374,-0.022,-0.0219,0,0,0,0,0,0,0,0,0,0,0,-0.0513,-0.0513,-0.0479,-0.0478,-0.0375,-0.0374,-0.022,-0.0219,0,0,0,0,0,0,0,0,0,0,0,-0.0513,-0.0513,-0.0513,-0.0477,-0.0375,-0.0374,-0.0221,-0.03,0,0,0,0,0,0,0,0,0,0,-0.0401,-0.0453,-0.0513,-0.0513,-0.0477,-0.0375,-0.0374,-0.0304,-0.0295,-0.0266,0,-0.026,0,-0.0244,-0.021,-0.0209,0,0,0,-0.046,-0.046,-0.0425,-0.0513,-0.0476,-0.0375,-0.0416,-0.0299,-0.0289,-0.0255,-0.0258,-0.0252,-0.0241,-0.0209,-0.0208,-0.0077,-0.0077,0,0,-0.0465,-0.0497,-0.0432,-0.0419,-0.0461,-0.0419,-0.0413,-0.0293,-0.0292,-0.0257,-0.0248,-0.0238,-0.0208,-0.0207,-0.0078,-0.0077,0,0,0,-0.0494,-0.0501,-0.0468,-0.0425,-0.0413,-0.0417,-0.0409,-0.0297,-0.0284,-0.0247,-0.0237,-0.0207,-0.0206,-0.0078,-0.0078,-0.0151,0,0,0,-0.0496,-0.0518,-0.0472,-0.0489,-0.0416,-0.036,-0.0417,-0.0292,-0.0278,-0.0237,-0.0207,-0.0204,-0.0079,-0.0078,-0.015,-0.0192,0,0,0,-0.0516,-0.0521,-0.0511,-0.0491,-0.0454,-0.0361,-0.0341,-0.0289,-0.0273,-0.0209,-0.0204,-0.0079,-0.0078,-0.0149,-0.0189,-0.0132,0,0,0,-0.0547,-0.0545,-0.0512,-0.0503,-0.0455,-0.0392,-0.0342,-0.0288,-0.0239,-0.0207,-0.0079,-0.0078,-0.0149,-0.0187,-0.0132,-0.0098,-0.0097,0,0,-0.0561,-0.0547,-0.0539,-0.0508,-0.0475,-0.0405,-0.0353,-0.0271,-0.021,-0.0115,-0.0111,-0.0151,-0.0189,-0.0132,-0.0042,-0.0043,0,0,0,-0.0554,-0.0555,-0.0537,-0.0512,-0.0452,-0.0399,-0.0313,-0.0265,-0.0179,-0.0178,-0.011,-0.0131,-0.0093,-0.0071,-0.007,-0.0073,-0.0073,-0.0073,-0.0073,-0.0621,-0.0583,-0.0577,-0.0525,-0.048,-0.0385,-0.033,-0.0241,-0.0189,-0.0157,-0.0161,-0.0129,-0.0107,-0.0106,-0.0119,-0.0119,-0.0119,-0.012,-0.012,-0.0666,-0.0667,-0.0615,-0.06,-0.0527,-0.0476,-0.0344,-0.0295,-0.0194,-0.0175,-0.0133,-0.0113,-0.0111,-0.0125,-0.0124,-0.0123,-0.0123,-0.0122,-0.0122,-0.0727,-0.0722,-0.0709,-0.0687,-0.0639,-0.0543,-0.0471,-0.0368,-0.0258,-0.0232,-0.013,-0.0128,-0.0171,-0.0187,-0.0187,-0.0187,-0.0187,-0.0187,-0.0187,-0.08,-0.0781,-0.0811,-0.0775,-0.077,-0.0711,-0.0547,-0.0451,-0.0279,-0.0195,-0.0193,-0.015,-0.0148,-0.0171,-0.0186,-0.0186,-0.0186,-0.0187,-0.0187,-0.0866,-0.0875,-0.0916,-0.093,-0.0914,-0.0872,-0.0717,-0.0469,-0.0323,-0.0226,-0.0137,-0.0139,-0.0097,-0.0096,-0.0114,-0.0114,-0.0114,-0.0114,-0.0114,-0.0927,-0.0929,-0.1002,-0.1042,-0.1053,-0.0948,-0.0811,-0.0554,-0.0287,-0.0152,-0.0151,-0.0158,-0.0159,-0.0121,-0.0119,-0.0138,-0.0144,-0.0144,-0.0145,-0.0976,-0.0993,-0.1055,-0.1093,-0.1115,-0.1027,-0.0862,-0.0526,-0.0157,-0.0151,-0.0206,-0.0106,-0.0113,-0.0116,-0.0052,-0.0052,-0.0079,0,0]}],[{"header":{"parameterUnit":"m.s-1","parameterCategory":2,"la1":30.2992,"la2":30.254,"lo1":-89.0895,"lo2":-89.0443,"dy":0.0025,"dx":0.0025,"nx":19,"ny":19,"refTime":"2026-05-19T09:00:00:Z","depth":"4","parameterNumber":2,"parameterNumberName":"U-component_of_CURRENTS"},"data":[0,0,0,-0.1603,-0.1605,-0.1738,-0.1738,-0.1791,-0.1791,0,0,0,0,0,0,0,0,0,0,0,-0.1566,-0.1568,-0.1602,-0.1606,-0.1738,-0.1739,-0.1791,-0.1791,0,0,0,0,0,0,0,0,0,0,0,-0.1566,-0.1567,-0.1569,-0.1606,-0.1738,-0.1739,-0.1791,-0.1722,0,0,0,0,0,0,0,0,0,0,-0.1608,-0.1595,-0.1567,-0.1569,-0.1607,-0.1738,-0.1739,-0.172,-0.1726,-0.1696,0,-0.1727,0,-0.1751,-0.1792,-0.1792,0,0,0,-0.1611,-0.1591,-0.1617,-0.1569,-0.1608,-0.1737,-0.168,-0.1724,-0.1731,-0.1704,-0.1728,-0.1731,-0.1752,-0.1792,-0.1792,-0.1822,-0.1823,0,0,-0.1604,-0.1594,-0.1613,-0.1622,-0.1654,-0.1676,-0.1684,-0.173,-0.1743,-0.1729,-0.1733,-0.1753,-0.1792,-0.1792,-0.1822,-0.1822,0,0,0,-0.1579,-0.1589,-0.1618,-0.1619,-0.1648,-0.1679,-0.1689,-0.1742,-0.175,-0.1733,-0.1753,-0.1792,-0.1792,-0.1822,-0.1822,-0.1842,0,0,0,-0.1575,-0.1574,-0.1615,-0.1611,-0.1648,-0.1713,-0.17,-0.1747,-0.1753,-0.1753,-0.1792,-0.1792,-0.1821,-0.1822,-0.184,-0.1836,0,0,0,-0.1558,-0.1572,-0.159,-0.161,-0.1663,-0.1714,-0.1726,-0.175,-0.1764,-0.1792,-0.1792,-0.1821,-0.1822,-0.1839,-0.1835,-0.1795,0,0,0,-0.154,-0.1585,-0.159,-0.1652,-0.1662,-0.1741,-0.1727,-0.1801,-0.1835,-0.1792,-0.1821,-0.1822,-0.1839,-0.1834,-0.1795,-0.1579,0,0,0,-0.1583,-0.1591,-0.1627,-0.1634,-0.17,-0.1722,-0.1781,-0.1824,-0.1825,-0.1798,-0.18,-0.1841,-0.1835,-0.1795,-0.1624,0,0,0,0,-0.1632,-0.1645,-0.1673,-0.1713,-0.1766,-0.1793,-0.1836,-0.1842,-0.1861,-0.1846,-0.185,-0.1845,-0.1819,-0.1694,-0.1826,-0.1826,-0.1826,-0.1825,-0.1825,-0.1631,-0.1663,-0.171,-0.1746,-0.1794,-0.1846,-0.1871,-0.1876,-0.188,-0.1895,-0.1869,-0.1862,-0.1734,-0.1884,-0.1884,-0.1884,-0.1884,-0.1884,-0.1884,-0.1641,-0.1646,-0.1702,-0.1759,-0.1797,-0.1843,-0.1875,-0.1891,-0.1877,-0.1892,-0.1865,-0.1735,-0.1886,-0.1886,-0.1886,-0.1885,-0.1885,-0.1885,-0.1885,-0.158,-0.1588,-0.165,-0.1718,-0.1778,-0.1838,-0.1835,-0.1888,-0.1884,-0.1878,-0.1708,-0.1856,-0.1843,-0.1857,-0.1856,-0.1856,-0.1856,-0.1856,-0.1856,-0.1482,-0.1542,-0.1569,-0.1672,-0.1701,-0.1756,-0.1819,-0.179,-0.1814,-0.1692,-0.187,-0.1851,-0.1852,-0.184,-0.1853,-0.1854,-0.1854,-0.1854,-0.1854,-0.1372,-0.1424,-0.1432,-0.1468,-0.1532,-0.1562,-0.168,-0.1605,-0.154,-0.1453,-0.1575,-0.159,-0.1548,-0.1556,-0.1532,-0.1454,-0.1452,-0.1449,0,-0.1276,-0.1313,-0.1276,-0.1267,-0.1262,-0.1402,-0.1281,-0.1298,-0.1327,-0.1293,-0.1504,-0.1643,-0.1652,-0.1609,-0.1612,-0.1584,0,0,0,-0.1188,-0.1187,-0.1106,-0.1128,-0.1109,-0.1128,-0.1234,-0.1171,-0.1369,-0.125,-0.1379,-0.1397,-0.1665,-0.1845,-0.1816,-0.1817,-0.1795,0,0]},{"header":{"parameterUnit":"m.s-1","parameterCategory":2,"la1":30.2992,"la2":30.254,"lo1":-89.0895,"lo2":-89.0443,"dy":0.0025,"dx":0.0025,"nx":19,"ny":19,"refTime":"2026-05-19T09:00:00:Z","depth":"4","parameterNumber":3,"parameterNumberName":"V-component_of_CURRENTS"},"data":[0,0,0,-0.0382,-0.0382,-0.0336,-0.0336,-0.024,-0.0239,0,0,0,0,0,0,0,0,0,0,0,-0.0399,-0.0399,-0.0383,-0.0382,-0.0336,-0.0336,-0.024,-0.0239,0,0,0,0,0,0,0,0,0,0,0,-0.0399,-0.0399,-0.0399,-0.0382,-0.0336,-0.0336,-0.024,-0.0282,0,0,0,0,0,0,0,0,0,0,-0.033,-0.0363,-0.0399,-0.0399,-0.0382,-0.0336,-0.0336,-0.0284,-0.0279,-0.0254,0,-0.0256,0,-0.0248,-0.0233,-0.0233,0,0,0,-0.0371,-0.0367,-0.0348,-0.0399,-0.0381,-0.0336,-0.0354,-0.0281,-0.0276,-0.0247,-0.0254,-0.0251,-0.0247,-0.0232,-0.0232,-0.0089,-0.0088,0,0,-0.0373,-0.0393,-0.0352,-0.0345,-0.038,-0.0355,-0.0352,-0.0278,-0.028,-0.0254,-0.0249,-0.0245,-0.0232,-0.0231,-0.009,-0.0089,0,0,0,-0.0388,-0.0395,-0.0378,-0.0349,-0.0345,-0.0354,-0.0351,-0.0283,-0.0276,-0.0248,-0.0244,-0.0231,-0.023,-0.0091,-0.0089,-0.0121,0,0,0,-0.0389,-0.0404,-0.038,-0.0391,-0.0347,-0.0321,-0.0358,-0.0281,-0.0273,-0.0245,-0.0231,-0.0229,-0.0092,-0.009,-0.0122,-0.0151,0,0,0,-0.04,-0.0405,-0.0402,-0.0392,-0.0376,-0.0322,-0.0311,-0.0279,-0.0271,-0.0233,-0.0229,-0.0092,-0.009,-0.0123,-0.0151,-0.0135,0,0,0,-0.0417,-0.0416,-0.0403,-0.0396,-0.0377,-0.0326,-0.0311,-0.0277,-0.0246,-0.0231,-0.0092,-0.0089,-0.0123,-0.0152,-0.0136,-0.0238,0,0,0,-0.0423,-0.0418,-0.041,-0.0396,-0.0363,-0.0331,-0.0273,-0.0235,-0.0199,-0.0114,-0.0111,-0.0121,-0.0151,-0.0136,-0.0113,0,0,0,0,-0.0415,-0.0413,-0.04,-0.038,-0.0338,-0.0289,-0.0242,-0.0204,-0.0131,-0.0172,-0.007,-0.0087,-0.0077,-0.0134,-0.0079,-0.008,-0.008,-0.008,-0.008,-0.0452,-0.0421,-0.0405,-0.0362,-0.0323,-0.025,-0.0202,-0.0129,-0.0107,-0.0067,-0.0074,-0.0033,-0.0089,-0.0021,-0.0021,-0.0021,-0.0021,-0.0021,-0.0021,-0.0465,-0.0458,-0.041,-0.0391,-0.0326,-0.0275,-0.0157,-0.0127,-0.0047,-0.0035,-0.0024,-0.0115,-0.0023,-0.0022,-0.0022,-0.0022,-0.0022,-0.0022,-0.0022,-0.0498,-0.0489,-0.048,-0.0452,-0.0401,-0.0316,-0.0269,-0.0175,-0.0081,-0.0064,-0.0109,-0.0041,-0.0083,-0.0058,-0.0058,-0.0058,-0.0058,-0.0058,-0.0058,-0.0545,-0.0526,-0.0559,-0.052,-0.0524,-0.0481,-0.0352,-0.0292,-0.0172,-0.015,-0.0078,-0.0045,-0.0044,-0.0083,-0.0059,-0.0059,-0.0059,-0.0059,-0.0059,-0.0582,-0.0605,-0.0647,-0.0674,-0.0678,-0.0637,-0.0527,-0.0372,-0.0314,-0.0244,-0.0177,-0.0171,-0.017,-0.0166,-0.021,-0.0223,-0.0224,-0.0226,0,-0.0632,-0.0636,-0.0726,-0.0786,-0.0806,-0.0726,-0.0666,-0.0546,-0.0367,-0.0381,-0.0303,-0.0235,-0.0228,-0.0234,-0.0231,-0.0287,0,0,0,-0.0668,-0.0693,-0.0766,-0.0824,-0.0856,-0.0739,-0.0639,-0.0586,-0.0417,-0.0342,-0.0257,-0.0249,-0.0175,-0.0061,-0.0044,-0.0043,-0.0105,0,0]}]]